Location: Aula-Vintri
(58.3875°N, 22.4322°E)
Time: 06:06:54
(UTC+00:00)

Cosmos 2263 Rocket - Pass Details

Date: 13 October 2019
Orbit: 825 x 847 km, 71.0° (Epoch: 18 November)

Event Time Altitude Azimuth Distance (km) Brightness Sun altitude
Rises 17:44:34 0° 243° (WSW) 3,401 6.1 -18.1°
Reaches altitude 10° 17:47:08 10° 249° (WSW) 2,466 5.4 -18.4°
Maximum altitude 17:52:33 45° 322° (NW) 1,137 3.2 -19.1°
Drops below altitude 10° 17:57:58 10° 35° (NE) 2,461 4.4 -19.8°
Enters shadow 17:59:53 - 41° (NE) 3,158 5.0 -20.0°
